Provo, UT

9:41 AM MST on February 27, 2017 (GMT -0700)
Provo Municipal

Weather History for KPVU - September, 2012

Change the Weather History Date:

Saturday, September 8, 2012

  Actual Average Record
Temperature  
Mean Temperature 66 °F -  
Max Temperature 82 °F 78 °F 91 °F (2004)
Min Temperature 50 °F 50 °F 41 °F (1999)
Cooling Degree Days 1    
Growing Degree Days 16 (Base 50)    
Moisture  
Dew Point 42 °F    
Average Humidity 47    
Maximum Humidity 72    
Minimum Humidity 15    
Precipitation  
Precipitation 0.00 in - - ()
Sea Level Pressure  
Sea Level Pressure 30.26 in    
Wind  
Wind Speed 4 mph (ESE)    
Max Wind Speed 8 mph    
Max Gust Speed -    
Visibility 12 miles    
Events      
Averages and records for this station are not official NWS values.
T = Trace of Precipitation, MM = Missing Value Source: NWS Daily Summary

Daily Weather History Graph

Daily Weather History Graph

Search for Another Location

Airport or City:

Trip Planner

Search our weather history database for the weather conditions in past years. The results will help you decide how hot, cold, wet, or windy it might be!

Date:

Astronomy

Sep. 08, 2012 Rise Set
Actual Time 7:01 AM MDT 7:46 PM MDT
Civil Twilight 6:34 AM MDT 8:13 PM MDT
Nautical Twilight 6:01 AM MDT 8:46 PM MDT
Astronomical Twilight 5:27 AM MDT 9:19 PM MDT
Moon No Moon Rise 2:46 PM MDT (9/8)
Length of Visible Light 13h 39m
Length of Day
12h 44m
Waning Gibbous, 48% of the Moon is Illuminated
Sep 8
Waning Gibbous
Sep 15
New
Sep 22
First Quarter
Sep 29
Full
Oct 8
Last Quarter

Hourly Weather History & Observations

Time (MDT) Temp. Dew Point Humidity Pressure Visibility Wind Dir Wind Speed Gust Speed Precip Events Conditions
12:16 AM 57.2 °F 39.2 °F 51% 30.29 in 10.0 mi SE 5.8 mph - N/A   Clear
12:35 AM 57.2 °F 41.0 °F 55% 30.29 in 10.0 mi SE 8.1 mph - N/A   Clear
12:55 AM 55.4 °F 39.2 °F 54% 30.29 in 10.0 mi SE 3.5 mph - N/A   Clear
1:15 AM 55.4 °F 42.8 °F 63% 30.29 in 10.0 mi Calm Calm - N/A   Clear
1:35 AM 55.4 °F 39.2 °F 54% 30.29 in 10.0 mi Calm Calm - N/A   Clear
2:15 AM 55.4 °F 41.0 °F 58% 30.29 in 10.0 mi Calm Calm - N/A   Clear
2:35 AM 53.6 °F 44.6 °F 72% 30.29 in 10.0 mi Calm Calm - N/A   Clear
2:55 AM 51.8 °F 41.0 °F 67% 30.29 in 10.0 mi NE 3.5 mph - N/A   Clear
3:15 AM 51.8 °F 42.8 °F 71% 30.29 in 10.0 mi Calm Calm - N/A   Clear
3:35 AM 51.8 °F 39.2 °F 62% 30.29 in 10.0 mi Calm Calm - N/A   Clear
3:55 AM 50.0 °F 39.2 °F 66% 30.29 in 10.0 mi East 4.6 mph - N/A   Clear
6:50 AM 51.8 °F 37.4 °F 58% 30.32 in 15.0 mi Calm Calm - N/A   Clear
7:56 AM 55.4 °F 39.2 °F 54% 30.35 in 15.0 mi East 6.9 mph - N/A   Clear
8:50 AM 60.8 °F 37.4 °F 42% 30.35 in 15.0 mi SSE 4.6 mph - N/A   Clear
9:47 AM 62.6 °F 39.2 °F 42% 30.35 in 15.0 mi ENE 3.5 mph - N/A   Clear
10:57 AM 69.8 °F 41.0 °F 35% 30.34 in 15.0 mi SE 5.8 mph - N/A   Clear
11:53 AM 71.6 °F 44.6 °F 38% 30.33 in 15.0 mi South 3.5 mph - N/A   Clear
12:53 PM 71.6 °F 46.4 °F 41% 30.31 in 15.0 mi SSW 5.8 mph - N/A   Clear
1:59 PM 75.2 °F 44.6 °F 34% 30.28 in 15.0 mi NW 5.8 mph - N/A   Clear
2:49 PM 77.0 °F 44.6 °F 32% 30.26 in 15.0 mi SSW 5.8 mph - N/A   Clear
3:57 PM 80.6 °F 44.6 °F 28% 30.22 in 15.0 mi Variable 3.5 mph - N/A   Clear
4:55 PM 82.4 °F 35.6 °F 19% 30.19 in 15.0 mi Variable 3.5 mph - N/A   Clear
5:57 PM 82.4 °F 30.2 °F 15% 30.18 in 15.0 mi Calm Calm - N/A   Partly Cloudy
6:55 PM 82.4 °F 30.2 °F 15% 30.17 in 15.0 mi Calm Calm - N/A   Partly Cloudy
7:50 PM 73.4 °F 53.6 °F 50% 30.17 in 15.0 mi Calm Calm - N/A   Partly Cloudy
8:52 PM 71.6 °F 46.4 °F 41% 30.18 in 15.0 mi NW 8.1 mph - N/A   Partly Cloudy
9:15 PM 69.8 °F 46.4 °F 43% 30.19 in 10.0 mi North 5.8 mph - N/A   Clear
9:35 PM 69.8 °F 46.4 °F 43% 30.19 in 10.0 mi North 5.8 mph - N/A   Clear
10:15 PM 64.4 °F 46.4 °F 52% 30.20 in 10.0 mi ESE 3.5 mph - N/A   Clear
10:55 PM 60.8 °F 42.8 °F 52% 30.21 in 10.0 mi SSE 8.1 mph - N/A   Clear
11:15 PM 62.6 °F 42.8 °F 48% 30.21 in 10.0 mi SSE 5.8 mph - N/A   Clear
11:35 PM 62.6 °F 44.6 °F 52% 30.21 in 10.0 mi ESE 4.6 mph - N/A   Clear
11:55 PM 59.0 °F 42.8 °F 55% 30.21 in 10.0 mi ESE 4.6 mph - N/A   Clear